Погода в Янгельском

Россия / Челябинская область     53°07′32″N   58°59′00″E
темп.,
°C
ветер,
м/с
пор.,
м/с
влажн.,
%
обл.,
%
осадки,
мм/ч
давл.,
гПа
погр.,
м
22 октября, пт
пт2223:000ююз71491100 0.5 1011880
02:000юз71496100 4.0 1008916
05:00+1зюз61387100 4.1 1006672
08:00+2зюз61394100 0.0 1007586
11:00+3зюз51298100 0.0 1009443
14:00+5юз61498100 0.1 1009517
17:00+6зюз71584100 0.1 1009661
20:00+6юз71672100 0.0 1009631
23 октября, сб
сб2323:00+6зюз81770100 0.0 1010634
02:00+6зюз8167291 0.0 1011568
05:00+6зюз7157931 0.0 1012474
08:00+5зюз61383100 0.0 1013381
11:00+8зюз61476100 0.0 1014767
14:00+10зюз71371100 0.0 1015895
17:00+9зюз71374100 0.0 1015652
20:00+8юз6128399 0.0 1017418
24 октября, вс
вс2423:00+7юз41087100 0.0 1018230
02:00+6юз3788100 0.0 1018145
05:00+7ююз41185100 0.1 1017302
08:00+7ю41087100 0.8 1015291
11:00+9ююз71477100 0.8 1013850
14:00+11юз81662100 0.0 10111163
17:00+9зюз81475100 0.1 1012865
20:00+8зсз61080100 0.4 1014681
25 октября, пн
пн2523:00+7з3881100 0.4 1015360
02:00+6зюз2383100 0.0 101565
05:00+5з1179100 0.0 101510
08:00+5юв1183100 0.0 101422
11:00+6вюв2496100 2.3 1013234
14:00+6св2391100 1.3 1012249
17:00+6ссв3492100 1.5 1010141
20:00+5с3494100 0.1 1010127
26 октября, вт
вт2623:00+5с4694100 1.2 1009374
02:00+3с41097100 1.9 1011433
05:00+3с5108384 2.4 1011855
08:00+2с712725 0.0 1013786
11:00+1ссв810595 0.0 1016970
14:00+2ссв810485 0.0 10171188
17:00+1ссв69490 0.0 10181169
20:00−1ссв49560 0.0 1021476